When you browse on this site, cookies collect data to enhance your experience and personalize the content and advertising you see.
Visit our Privacy Policy to learn more. By continuing to use the site, you agree to this use of cookies and data.
  • In Czech Republic
  • List of Countries
  • For 7 days
  • Water Temperature
  • Weather Map
  • Weather Widgets
  • user-avatar
    Login

    Hourly Weather Zapatoca

    Today, 24 January, Friday

    Time Temperature Precipitation Wind Pressure Humidity
    00:00 +14°C° 0 mm 0 mps 614 mmHg 87%
    01:00 +14°C° 0 mm 0 mps 614 mmHg 87%
    02:00 +14°C° 0.3 mm 0 mps 614 mmHg 89%
    03:00 +14°C° 0.3 mm 0 mps 613 mmHg 91%
    04:00 +13°C° 0.3 mm 0 mps 613 mmHg 92%
    05:00 +14°C° 0.1 mm 0 mps 614 mmHg 92%
    06:00 +15°C° 0.1 mm 1 mps 614 mmHg 91%
    07:00 +15°C° 0.1 mm 1 mps 615 mmHg 90%
    08:00 +18°C° 0.1 mm 1 mps 615 mmHg 85%
    09:00 +19°C° 0.1 mm 1 mps 616 mmHg 79%
    10:00 +21°C° 0.1 mm 1 mps 617 mmHg 74%
    11:00 +21°C° 0.6 mm 1 mps 616 mmHg 74%
    12:00 +21°C° 0.6 mm 2 mps 616 mmHg 73%
    13:00 +21°C° 0.6 mm 2 mps 615 mmHg 73%
    14:00 +21°C° 0.7 mm 2 mps 615 mmHg 75%
    15:00 +20°C° 0.7 mm 2 mps 614 mmHg 78%
    16:00 +20°C° 0.7 mm 2 mps 614 mmHg 80%
    17:00 +19°C° 0.7 mm 2 mps 614 mmHg 84%
    18:00 +19°C° 0.7 mm 1 mps 614 mmHg 88%
    19:00 +16°C° 0.7 mm 1 mps 614 mmHg 93%
    20:00 +16°C° 0.5 mm 1 mps 614 mmHg 93%
    21:00 +15°C° 0.5 mm 0 mps 615 mmHg 93%
    22:00 +15°C° 0.5 mm 0 mps 615 mmHg 93%
    23:00 +15°C° 1.3 mm 0 mps 615 mmHg 94%

    Tomorrow, 25 January, Saturday

    Time Temperature Precipitation Wind Pressure Humidity
    00:00 +15°C° 1.3 mm 0 mps 615 mmHg 95%
    01:00 +15°C° 1.3 mm 0 mps 615 mmHg 96%
    02:00 +15°C° 1.6 mm 0 mps 614 mmHg 96%
    03:00 +15°C° 1.6 mm 0 mps 614 mmHg 96%
    04:00 +15°C° 1.6 mm 0 mps 614 mmHg 97%
    05:00 +15°C° 1.2 mm 0 mps 614 mmHg 97%
    06:00 +15°C° 1.2 mm 0 mps 615 mmHg 97%
    07:00 +15°C° 1.2 mm 0 mps 615 mmHg 97%
    08:00 +15°C° 0.7 mm 0 mps 616 mmHg 95%
    09:00 +15°C° 0.7 mm 0 mps 616 mmHg 94%
    10:00 +16°C° 0.7 mm 0 mps 616 mmHg 92%
    11:00 +19°C° 0.1 mm 1 mps 616 mmHg 86%
    12:00 +21°C° 0.1 mm 1 mps 616 mmHg 80%
    13:00 +21°C° 0.1 mm 2 mps 616 mmHg 74%
    14:00 +21°C° 0.2 mm 2 mps 615 mmHg 75%
    15:00 +20°C° 0.2 mm 2 mps 614 mmHg 77%
    16:00 +20°C° 0.2 mm 2 mps 614 mmHg 79%
    17:00 +20°C° 0.3 mm 1 mps 614 mmHg 84%
    18:00 +19°C° 0.3 mm 1 mps 614 mmHg 89%
    19:00 +18°C° 0.3 mm 1 mps 614 mmHg 94%
    20:00 +18°C° 0.3 mm 1 mps 614 mmHg 94%
    21:00 +15°C° 0.3 mm 0 mps 615 mmHg 93%
    22:00 +15°C° 0.3 mm 0 mps 615 mmHg 93%
    23:00 +15°C° 1 mm 0 mps 615 mmHg 93%

    Day after tomorrow, 26 January, Sunday

    Time Temperature Precipitation Wind Pressure Humidity
    00:00 +15°C° 1 mm 0 mps 615 mmHg 94%
    01:00 +15°C° 1 mm 0 mps 614 mmHg 95%
    02:00 +15°C° 1.5 mm 0 mps 614 mmHg 95%
    03:00 +15°C° 1.5 mm 0 mps 614 mmHg 96%
    04:00 +15°C° 1.5 mm 0 mps 614 mmHg 96%
    05:00 +15°C° 2.3 mm 0 mps 614 mmHg 96%
    06:00 +15°C° 2.3 mm 0 mps 614 mmHg 97%
    07:00 +15°C° 2.3 mm 0 mps 615 mmHg 97%
    08:00 +15°C° 2.2 mm 0 mps 615 mmHg 96%
    09:00 +16°C° 2.2 mm 1 mps 615 mmHg 96%
    10:00 +16°C° 2.2 mm 1 mps 616 mmHg 95%
    11:00 +18°C° 0.6 mm 1 mps 615 mmHg 93%
    12:00 +18°C° 0.6 mm 1 mps 615 mmHg 92%
    13:00 +18°C° 0.6 mm 1 mps 614 mmHg 90%
    14:00 +19°C° 0.3 mm 1 mps 614 mmHg 88%
    15:00 +19°C° 0.3 mm 1 mps 614 mmHg 86%
    16:00 +19°C° 0.3 mm 1 mps 614 mmHg 84%
    17:00 +19°C° 0.4 mm 1 mps 614 mmHg 86%
    18:00 +18°C° 0.4 mm 1 mps 614 mmHg 89%
    19:00 +16°C° 0.4 mm 1 mps 614 mmHg 92%
    20:00 +15°C° 0.4 mm 0 mps 615 mmHg 91%
    21:00 +15°C° 0.4 mm 0 mps 615 mmHg 91%
    22:00 +15°C° 0.4 mm 0 mps 615 mmHg 90%
    23:00 +15°C° 0.4 mm 0 mps 615 mmHg 91%

    27 January, Monday

    Time Temperature Precipitation Wind Pressure Humidity
    00:00 +14°C° 0.4 mm 0 mps 615 mmHg 91%
    01:00 +14°C° 0.4 mm 0 mps 614 mmHg 92%
    02:00 +14°C° 0.4 mm 0 mps 614 mmHg 92%
    03:00 +14°C° 0.4 mm 0 mps 614 mmHg 93%
    04:00 +14°C° 0.4 mm 0 mps 614 mmHg 94%
    05:00 +14°C° 0.1 mm 0 mps 614 mmHg 93%
    06:00 +14°C° 0.1 mm 0 mps 615 mmHg 93%
    07:00 +14°C° 0.1 mm 0 mps 615 mmHg 93%
    08:00 +15°C° 0.1 mm 0 mps 616 mmHg 89%
    09:00 +18°C° 0.1 mm 1 mps 616 mmHg 85%
    10:00 +20°C° 0.1 mm 1 mps 617 mmHg 82%
    11:00 +20°C° 0.2 mm 1 mps 617 mmHg 79%
    12:00 +20°C° 0.2 mm 2 mps 616 mmHg 76%
    13:00 +21°C° 0.2 mm 2 mps 616 mmHg 73%
    14:00 +21°C° 0.2 mm 2 mps 615 mmHg 75%
    15:00 +20°C° 0.2 mm 2 mps 615 mmHg 76%
    16:00 +21°C° 0.2 mm 1 mps 614 mmHg 78%
    17:00 +20°C° 0.2 mm 1 mps 614 mmHg 83%
    18:00 +19°C° 0.2 mm 1 mps 614 mmHg 88%
    19:00 +16°C° 0.2 mm 1 mps 614 mmHg 93%
    20:00 +16°C° 0.4 mm 1 mps 614 mmHg 92%
    21:00 +16°C° 0.4 mm 1 mps 615 mmHg 91%
    22:00 +15°C° 0.4 mm 1 mps 615 mmHg 90%
    23:00 +14°C° 0.2 mm 0 mps 614 mmHg 90%

    28 January, Tuesday

    Time Temperature Precipitation Wind Pressure Humidity
    00:00 +14°C° 0.2 mm 0 mps 614 mmHg 90%
    01:00 +14°C° 0.2 mm 0 mps 614 mmHg 90%
    02:00 +14°C° 0.5 mm 0 mps 614 mmHg 91%
    03:00 +15°C° 0.5 mm 1 mps 614 mmHg 91%
    04:00 +15°C° 0.5 mm 1 mps 614 mmHg 91%
    05:00 +15°C° 1 mm 1 mps 614 mmHg 92%
    06:00 +15°C° 1 mm 1 mps 614 mmHg 93%
    07:00 +15°C° 1 mm 1 mps 615 mmHg 94%
    08:00 +15°C° 1.2 mm 1 mps 615 mmHg 93%
    09:00 +16°C° 1.2 mm 1 mps 615 mmHg 93%
    10:00 +16°C° 1.2 mm 1 mps 616 mmHg 92%
    11:00 +19°C° 0.3 mm 1 mps 615 mmHg 86%
    12:00 +20°C° 0.3 mm 1 mps 615 mmHg 79%
    13:00 +21°C° 0.3 mm 1 mps 615 mmHg 73%
    14:00 +21°C° 0.2 mm 1 mps 615 mmHg 75%
    15:00 +20°C° 0.2 mm 2 mps 614 mmHg 76%
    16:00 +20°C° 0.2 mm 2 mps 614 mmHg 78%
    17:00 +20°C° 0.3 mm 1 mps 614 mmHg 84%
    18:00 +18°C° 0.3 mm 1 mps 614 mmHg 89%
    19:00 +16°C° 0.3 mm 1 mps 614 mmHg 95%
    20:00 +16°C° 0.3 mm 1 mps 614 mmHg 94%
    21:00 +14°C° 0.3 mm 0 mps 614 mmHg 94%
    22:00 +14°C° 0.3 mm 0 mps 614 mmHg 93%
    23:00 +14°C° 0.7 mm 0 mps 614 mmHg 93%

    29 January, Wednesday

    Time Temperature Precipitation Wind Pressure Humidity
    00:00 +14°C° 0.7 mm 0 mps 614 mmHg 93%
    01:00 +14°C° 0.7 mm 0 mps 614 mmHg 93%
    02:00 +14°C° 1 mm 0 mps 613 mmHg 94%
    03:00 +14°C° 1 mm 0 mps 613 mmHg 94%
    04:00 +14°C° 1 mm 0 mps 613 mmHg 94%
    05:00 +14°C° 0.9 mm 0 mps 614 mmHg 94%
    06:00 +14°C° 0.9 mm 0 mps 614 mmHg 94%
    07:00 +14°C° 0.9 mm 0 mps 615 mmHg 95%
    08:00 +14°C° 0.8 mm 0 mps 615 mmHg 94%
    09:00 +15°C° 0.8 mm 0 mps 615 mmHg 93%
    10:00 +15°C° 0.8 mm 0 mps 615 mmHg 92%
    11:00 +19°C° 0.2 mm 1 mps 615 mmHg 86%
    12:00 +20°C° 0.2 mm 1 mps 615 mmHg 79%
    13:00 +22°C° 0.2 mm 1 mps 615 mmHg 72%
    14:00 +21°C° 0.4 mm 1 mps 614 mmHg 75%
    15:00 +21°C° 0.4 mm 1 mps 614 mmHg 79%
    16:00 +20°C° 0.4 mm 1 mps 613 mmHg 82%
    17:00 +19°C° 0.5 mm 1 mps 613 mmHg 86%
    18:00 +18°C° 0.5 mm 1 mps 613 mmHg 90%
    19:00 +16°C° 0.5 mm 1 mps 613 mmHg 94%
    20:00 +16°C° 0.7 mm 1 mps 614 mmHg 94%
    21:00 +15°C° 0.7 mm 1 mps 614 mmHg 93%
    22:00 +14°C° 0.7 mm 0 mps 614 mmHg 92%
    23:00 +14°C° 1 mm 0 mps 614 mmHg 93%
    Show more